TimeMDT,TemperatureF,Dew PointF,Humidity,Sea Level PressureIn,VisibilityMPH,Wind Direction,Wind SpeedMPH,Gust SpeedMPH,PrecipitationIn,Events,Conditions,WindDirDegrees,DateUTC
2:45 AM,76,67,66,29.93,2,South,2.2,,,,,180,2012-10-05 08:45:00
5:50 AM,76,65,61,29.94,2,Calm,Calm,,,,,,2012-10-05 11:50:00
6:11 AM,68.0,62.6,83,30.00,10.0,South,6.9,-,N/A,,Clear,180,2012-10-05 12:11:00
6:42 AM,68.0,60.8,78,29.96,10.0,South,4.6,-,N/A,,Clear,170,2012-10-05 12:42:00
7:49 AM,68.0,60.8,78,29.96,10.0,South,9.2,-,N/A,,Clear,180,2012-10-05 13:49:00
8:40 AM,73.4,62.6,69,30.02,10.0,South,4.6,-,N/A,,Clear,190,2012-10-05 14:40:00
8:50 AM,78,65,56,29.96,12,Calm,Calm,,,,,,2012-10-05 14:50:00
9:43 AM,82.4,62.6,51,29.98,10.0,South,5.8,-,N/A,,Clear,170,2012-10-05 15:43:00
10:41 AM,89.6,64.4,43,29.98,10.0,South,4.6,-,N/A,,Clear,180,2012-10-05 16:41:00
11:40 AM,93.2,55.4,28,30.02,10.0,Calm,Calm,-,N/A,,Clear,0,2012-10-05 17:40:00
11:50 AM,97,62,22,29.96,19,South,2.2,,,,,190,2012-10-05 17:50:00
12:42 PM,96.8,53.6,23,29.95,15.0,West,3.5,-,N/A,,Clear,280,2012-10-05 18:42:00
1:44 PM,96.8,53.6,23,29.92,15.0,NNW,10.4,-,N/A,,Clear,330,2012-10-05 19:44:00
2:48 PM,96.8,53.6,23,29.96,15.0,NNW,8.1,-,N/A,,Clear,340,2012-10-05 20:48:00
2:50 PM,99,60,19,29.90,19,NW,8.9,,,,,320,2012-10-05 20:50:00
3:42 PM,95.0,53.6,25,29.89,15.0,NNW,6.9,-,N/A,,Clear,340,2012-10-05 21:42:00
4:50 PM,93.2,57.2,30,29.88,10.0,North,9.2,-,N/A,,Clear,350,2012-10-05 22:50:00
5:50 PM,97,63,23,29.87,2,WNW,6.7,,,,,300,2012-10-05 23:50:00
5:54 PM,91.4,57.2,31,29.98,10.0,NNW,6.9,-,N/A,,Clear,340,2012-10-05 23:54:00
6:43 PM,89.6,64.4,43,29.88,10.0,NNW,6.9,-,N/A,,Clear,330,2012-10-06 00:43:00
7:49 PM,86.0,69.8,58,29.89,10.0,NNW,6.9,-,N/A,,Clear,340,2012-10-06 01:49:00
8:43 PM,84.2,69.8,62,30.01,10.0,NW,5.8,-,N/A,,Clear,320,2012-10-06 02:43:00
8:50 PM,88,68,42,29.90,2,NW,2.2,,,,,320,2012-10-06 02:50:00
9:42 PM,78.8,68.0,69,29.92,10.0,SSE,5.8,-,N/A,,Clear,160,2012-10-06 03:42:00
10:44 PM,75.2,66.2,73,29.92,10.0,South,5.8,-,N/A,,Clear,180,2012-10-06 04:44:00
11:50 PM,81,60,38,29.89,2,SE,2.2,,,,,140,2012-10-06 05:50:00